This is the latest recevied weather packets stored in our database for station/object SQ5LTL-2. If no packets are shown the sender has not sent any weather packets the latest 10 day(s).
| Time | Temp. | Humidity | Pressure | Rain* | Wind** | Luminosity | Snow |
|---|---|---|---|---|---|---|---|
| 1777533329 | 7.22° C | 46% | 1031.1 hPa | 0 mm | - | 331 W/m² | - |
| 1777533026 | 7.22° C | 48% | 1031.2 hPa | 0 mm | - | 306 W/m² | - |
| 1777532726 | 7.22° C | 48% | 1031.2 hPa | 0 mm | - | 316 W/m² | - |
| 1777532424 | 6.67° C | 50% | 1031.2 hPa | 0 mm | - | 308 W/m² | - |
| 1777532122 | 6.67° C | 50% | 1031.3 hPa | 0 mm | - | 289 W/m² | - |
| 1777531821 | 6.67° C | 50% | 1031.4 hPa | 0 mm | - | 280 W/m² | - |
| 1777531519 | 6.67° C | 50% | 1031.3 hPa | 0 mm | - | 279 W/m² | - |
| 1777531218 | 6.67° C | 51% | 1031.4 hPa | 0 mm | - | 264 W/m² | - |
| 1777530917 | 6.11° C | 53% | 1031.4 hPa | 0 mm | - | 250 W/m² | - |
| 1777530635 | 5.56° C | 54% | 1031.3 hPa | 0 mm | - | 251 W/m² | - |
| 1777530334 | 5.56° C | 55% | 1031.2 hPa | 0 mm | - | 239 W/m² | - |
| 1777530033 | 5.56° C | 55% | 1031.3 hPa | 0 mm | - | 208 W/m² | - |
| 1777529732 | 5.56° C | 56% | 1031.3 hPa | 0 mm | - | 206 W/m² | - |
| 1777529429 | 5° C | 56% | 1031.3 hPa | 0 mm | - | 209 W/m² | - |
| 1777529129 | 5° C | 57% | 1031.3 hPa | 0 mm | - | 201 W/m² | - |
| 1777528826 | 5° C | 58% | 1031.2 hPa | 0 mm | - | 191 W/m² | - |
| 1777528525 | 4.44° C | 59% | 1031.3 hPa | 0 mm | - | 177 W/m² | - |
| 1777528224 | 4.44° C | 60% | 1031.4 hPa | 0 mm | - | 191 W/m² | - |
| 1777527922 | 4.44° C | 60% | 1031.3 hPa | 0 mm | - | 164 W/m² | - |
| 1777527620 | 4.44° C | 61% | 1031.2 hPa | 0 mm | - | 123 W/m² | - |
| 1777527319 | 3.89° C | 65% | 1031.3 hPa | 0 mm | - | 106 W/m² | - |
| 1777527017 | 3.89° C | 66% | 1031.2 hPa | 0 mm | - | 98 W/m² | - |
| 1777526716 | 3.33° C | 67% | 1031.3 hPa | 0 mm | - | 92 W/m² | - |
| 1777526435 | 2.78° C | 69% | 1031.1 hPa | 0 mm | - | 83 W/m² | - |
| 1777526133 | 2.22° C | 73% | 1031.3 hPa | 0 mm | - | 79 W/m² | - |
* Rain latest hour (hover to see other rain measurements)
** Current wind speed in m/s (hover to see current wind gust speed)